Location: Roc des P�zouls
(43.9667°N, 3.5500°E)
Time: 05:19:24
(UTC+00:00)

Cosmos 1459 Rocket - Pass Details

Date: 14 November 2019
Orbit: 938 x 999 km, 83.0° (Epoch: 04 December)

Event Time Altitude Azimuth Distance (km) Brightness Sun altitude
Rises 04:46:21 0° 175° (S) 3,614 7.1 -20.3°
Reaches altitude 10° 04:48:50 10° 172° (S) 2,680 6.5 -19.8°
Maximum altitude 04:54:52 63° 93° (E) 1,072 4.4 -18.7°
Drops below altitude 10° 05:01:03 10° 14° (NNE) 2,740 6.4 -17.6°
Sets 05:03:37 0° 11° (NNE) 3,701 7.1 -17.2°
